This is the latest recevied weather packets stored in our database for station/object AA1FF. If no packets are shown the sender has not sent any weather packets the latest 10 day(s).
| Time | Temp. | Humidity | Pressure | Rain* | Wind** | Luminosity | Snow |
|---|---|---|---|---|---|---|---|
| 1777738123 | 10.56° C | 84% | 1012 hPa | 0 mm | - | 74 W/m² | - |
| 1777737823 | 11.11° C | 82% | 1012 hPa | 1.02 mm | - | 71 W/m² | - |
| 1777737523 | 11.11° C | 81% | 1012 hPa | 0.51 mm | - | 140 W/m² | - |
| 1777737224 | 11.11° C | 81% | 1012 hPa | 0 mm | - | 126 W/m² | - |
| 1777736923 | 11.11° C | 80% | 1012 hPa | 0 mm | - | 169 W/m² | - |
| 1777736624 | 11.11° C | 78% | 1012 hPa | 0.51 mm | - | 187 W/m² | - |
| 1777736324 | 11.11° C | 78% | 1012 hPa | 0 mm | - | 154 W/m² | - |
| 1777736024 | 11.67° C | 75% | 1012 hPa | 0 mm | - | 121 W/m² | - |
| 1777735723 | 11.67° C | 77% | 1012 hPa | 0 mm | - | 67 W/m² | - |
| 1777735423 | 11.67° C | 75% | 1012 hPa | 0 mm | - | 173 W/m² | - |
| 1777735124 | 11.67° C | 80% | 1012 hPa | 0 mm | - | 354 W/m² | - |
| 1777734824 | 11.11° C | 80% | 1012 hPa | 0 mm | - | 298 W/m² | - |
| 1777734523 | 11.11° C | 82% | 1012 hPa | 0 mm | - | 301 W/m² | - |
| 1777734226 | 11.11° C | 80% | 1012 hPa | 0 mm | - | 258 W/m² | - |
| 1777733923 | 11.11° C | 82% | 1012 hPa | 0 mm | - | 334 W/m² | - |
| 1777733623 | 10.56° C | 86% | 1012 hPa | 0.51 mm | - | 509 W/m² | - |
| 1777733323 | 10.56° C | 83% | 1012 hPa | 0.51 mm | - | 373 W/m² | - |
| 1777733024 | 10.56° C | 84% | 1012 hPa | 0.76 mm | - | 172 W/m² | - |
| 1777732725 | 10° C | 85% | 1012 hPa | 0 mm | - | 139 W/m² | - |
| 1777732424 | 10° C | 86% | 1012 hPa | 0 mm | - | 283 W/m² | - |
| 1777732123 | 10° C | 84% | 1012 hPa | 0.51 mm | - | 148 W/m² | - |
| 1777731824 | 10° C | 85% | 1012 hPa | 0 mm | - | 97 W/m² | - |
| 1777731524 | 10° C | 85% | 1012 hPa | 0 mm | - | 83 W/m² | - |
| 1777731223 | 10° C | 85% | 1012 hPa | 0 mm | - | 75 W/m² | - |
| 1777730923 | 10° C | 85% | 1012 hPa | 0 mm | - | 103 W/m² | - |
* Rain latest hour (hover to see other rain measurements)
** Current wind speed in m/s (hover to see current wind gust speed)